User: anonymous   Login
Location: Unspecified
(0.0000°N, 0.0000°E)
Time: 06:50:43
(UTC+00:00)
Language:

Explorer 22 - Orbit

View from above orbital plane
View from above orbital plane
View from above satellite
View from above satellite

Ground track
Ground track

The orbit data is extracted from the following two-line orbital elements,

1   899U 64064A   17087.84354366 +.00000098 +00000-0 +80500-4 0  9992
2   899 079.6922 207.4918 0121109 212.8519 146.5063 13.82012722640133
Epoch (UTC): 28 March 2017 20:14:42
Eccentricity: 0.0121109
inclination: 79.6922°
perigee height: 868 km
apogee height: 1045 km
right ascension of ascending node: 207.4918°
argument of perigee: 212.8519°
revolutions per day: 13.82012722
mean anomaly at epoch: 146.5063°
orbit number at epoch: 64013

The dashed part of the orbit path shows where the satellite is in the earth's shadow,  

DLR